Tracking 31027 objects as of 19-Jul-2025
HD Live streaming from Space Station
objects crossing your sky now

COSMOS 1741 DEB *

Track COSMOS 1741 DEB * now!
10-day predictions


NORAD ID: 19235
Int'l Code: 1986-030H
Perigee: 929.5 km
Apogee: 937.7 km
Inclination: 74.0 °
Period: 103.6 minutes
Semi major axis: 7304 km
RCS: 0.0103 m2 (small)
Launch date: April 17, 1986
Source: Commonwealth of Independent States (former USSR) (CIS)
Launch site: PLESETSK MISSILE AND SPACE COMPLEX (PKMTR)

Note: This is SATELLITE DEBRIS
Your satellite tracking list
THORAD DELTA 1 DEB
Track 1 satellite(s)




NASA's NSSDC Master Catalog

Two Line Element Set (TLE):
1 19235U 70102G   25199.55578581  .00000173  00000-0  15772-3 0  9996
2 19235  74.0208 289.1842 0005592 327.8775  45.5193 13.90616105 39794
Source of the keplerian elements: AFSPC